Погода в Ситии

Греция     35°12′22″N   26°06′13″E
темп.,
°C
ветер,
м/с
пор.,
м/с
влажн.,
%
обл.,
%
осадки,
мм/ч
давл.,
гПа
погр.,
м
29 января, сб
сб2923:00+10ююз33636 0.0 1022436
02:00+10ююз446377 0.0 1021265
05:00+10ю446641 0.0 1020247
08:00+10ю6669100 0.0 1020262
11:00+13ю5561100 0.0 1020508
14:00+13ю4564100 0.0 1017794
17:00+13ю5671100 0.0 1015658
20:00+11ю4686100 2.3 1015387
30 января, вс
вс3023:00+12ююв587691 3.6 1014758
02:00+12ююв4581100 4.4 1012464
05:00+11ююз5582100 4.6 1012421
08:00+11вюв227698 5.4 1013267
11:00+12вюв346985 0.0 1015660
14:00+13всв436532 0.0 1014788
17:00+13св337210 0.0 1015451
20:00+12ссв22763 0.0 1017495
31 января, пн
пн3123:00+11зсз127650 0.0 1018451
02:00+11з34784 0.0 1017476
05:00+11з457957 0.1 1016449
08:00+12сз787898 1.1 1017968
11:00+13сз666868 0.4 10181096
14:00+13сз55651 0.4 1016987
17:00+13сз44684 0.0 1016862
20:00+12зсз23720 0.0 1015615
1 февраля, вт
вт123:00+12ююз33720 0.0 1015322
02:00+11ююз45740 0.0 1013352
05:00+12зюз34776 0.0 1012214
08:00+12ю24779 0.0 1012247
11:00+15ююз71171100 0.0 1011882
14:00+15ююз101470100 0.1 1010994
17:00+14ююз101472100 0.1 10101120
20:00+13ююз91374100 0.3 10101014
2 февраля, ср
ср223:00+13ююз71269100 0.1 10101220
02:00+13ююз7126847 0.2 10091169
05:00+13ю7136890 0.1 10081189
08:00+13ююз81467100 0.3 10081394
11:00+14ююз91662100 0.1 10071743
14:00+14ююз101760100 0.1 10051775
17:00+13ююз81472100 0.1 10041377
20:00+12ююз81177100 0.2 1005784